When you browse on this site, cookies collect data to enhance your experience and personalize the content and advertising you see.
Visit our Privacy Policy to learn more. By continuing to use the site, you agree to this use of cookies and data.
  • En España
  • Lista de países
  • Para 7 días
  • Temperatura del agua
  • El tiempo en el mapa
  • Informadores
  • user-avatar
    Iniciar sesión

    Tiempo cada hora Vigo

    Hoy, 24 Febrero, Lunes

    Tiempo Temperatura Precipitaciones Viento Presión Humedad
    00:00 +12°C° 0 mm 1 mps 766 mmHg 71%
    01:00 +12°C° 0 mm 1 mps 765 mmHg 71%
    02:00 +11°C° 0 mm 1 mps 765 mmHg 71%
    03:00 +11°C° 0 mm 1 mps 765 mmHg 70%
    04:00 +11°C° 0 mm 1 mps 765 mmHg 69%
    05:00 +10°C° 0 mm 1 mps 765 mmHg 69%
    06:00 +12°C° 0 mm 1 mps 765 mmHg 66%
    07:00 +13°C° 0 mm 1 mps 765 mmHg 64%
    08:00 +14°C° 0 mm 1 mps 765 mmHg 61%
    09:00 +16°C° 0 mm 1 mps 765 mmHg 56%
    10:00 +19°C° 0 mm 1 mps 765 mmHg 51%
    11:00 +21°C° 0 mm 1 mps 764 mmHg 47%
    12:00 +20°C° 0 mm 2 mps 764 mmHg 46%
    13:00 +20°C° 0 mm 2 mps 763 mmHg 45%
    14:00 +20°C° 0 mm 2 mps 762 mmHg 44%
    15:00 +17°C° 0 mm 2 mps 762 mmHg 57%
    16:00 +15°C° 0 mm 2 mps 762 mmHg 69%
    17:00 +13°C° 0 mm 2 mps 762 mmHg 82%
    18:00 +12°C° 0 mm 1 mps 763 mmHg 84%
    19:00 +11°C° 0 mm 1 mps 763 mmHg 87%
    20:00 +10°C° 0 mm 1 mps 763 mmHg 90%
    21:00 +10°C° 0 mm 1 mps 763 mmHg 91%
    22:00 +10°C° 0 mm 1 mps 763 mmHg 91%
    23:00 +9°C° 0 mm 2 mps 762 mmHg 91%

    Mañana, 25 Febrero, Martes

    Tiempo Temperatura Precipitaciones Viento Presión Humedad
    00:00 +9°C° 0 mm 2 mps 762 mmHg 91%
    01:00 +9°C° 0 mm 2 mps 761 mmHg 92%
    02:00 +9°C° 0 mm 2 mps 761 mmHg 93%
    03:00 +10°C° 0.3 mm 3 mps 761 mmHg 93%
    04:00 +10°C° 0.3 mm 3 mps 760 mmHg 94%
    05:00 +10°C° 0.3 mm 4 mps 760 mmHg 94%
    06:00 +10°C° 1.2 mm 4 mps 760 mmHg 95%
    07:00 +10°C° 1.2 mm 3 mps 761 mmHg 96%
    08:00 +10°C° 1.2 mm 3 mps 761 mmHg 97%
    09:00 +11°C° 0.3 mm 3 mps 761 mmHg 97%
    10:00 +12°C° 0.3 mm 3 mps 761 mmHg 96%
    11:00 +12°C° 0.3 mm 4 mps 762 mmHg 95%
    12:00 +13°C° 0.1 mm 4 mps 761 mmHg 91%
    13:00 +13°C° 0.1 mm 4 mps 761 mmHg 88%
    14:00 +13°C° 0.1 mm 5 mps 761 mmHg 84%
    15:00 +12°C° 0.1 mm 5 mps 761 mmHg 85%
    16:00 +12°C° 0.1 mm 5 mps 761 mmHg 86%
    17:00 +10°C° 0.1 mm 5 mps 762 mmHg 87%
    18:00 +10°C° 0 mm 4 mps 762 mmHg 88%
    19:00 +9°C° 0 mm 3 mps 763 mmHg 89%
    20:00 +7°C° 0 mm 2 mps 763 mmHg 90%
    21:00 +8°C° 0 mm 2 mps 763 mmHg 88%
    22:00 +8°C° 0 mm 2 mps 763 mmHg 87%
    23:00 +8°C° 0 mm 2 mps 763 mmHg 85%

    Pasado mañana, 26 Febrero, Miércoles

    Tiempo Temperatura Precipitaciones Viento Presión Humedad
    00:00 +8°C° 0 mm 2 mps 763 mmHg 86%
    01:00 +8°C° 0 mm 2 mps 763 mmHg 87%
    02:00 +8°C° 0 mm 2 mps 763 mmHg 88%
    03:00 +8°C° 0 mm 2 mps 763 mmHg 87%
    04:00 +8°C° 0 mm 2 mps 763 mmHg 87%
    05:00 +8°C° 0 mm 2 mps 763 mmHg 86%
    06:00 +9°C° 0.1 mm 2 mps 763 mmHg 85%
    07:00 +9°C° 0.1 mm 2 mps 763 mmHg 83%
    08:00 +10°C° 0.1 mm 2 mps 763 mmHg 82%
    09:00 +12°C° 0 mm 2 mps 764 mmHg 74%
    10:00 +13°C° 0 mm 2 mps 764 mmHg 67%
    11:00 +14°C° 0 mm 2 mps 764 mmHg 60%
    12:00 +14°C° 0 mm 2 mps 763 mmHg 59%
    13:00 +12°C° 0 mm 3 mps 763 mmHg 59%
    14:00 +12°C° 0 mm 3 mps 762 mmHg 59%
    15:00 +11°C° 0 mm 3 mps 762 mmHg 65%
    16:00 +10°C° 0 mm 2 mps 762 mmHg 71%
    17:00 +9°C° 0 mm 2 mps 762 mmHg 77%
    18:00 +9°C° 0 mm 1 mps 762 mmHg 80%
    19:00 +8°C° 0 mm 1 mps 763 mmHg 84%
    20:00 +7°C° 0 mm 1 mps 763 mmHg 87%
    21:00 +7°C° 0 mm 1 mps 763 mmHg 87%
    22:00 +7°C° 0 mm 1 mps 763 mmHg 88%
    23:00 +7°C° 0 mm 1 mps 763 mmHg 88%

    27 Febrero, Jueves

    Tiempo Temperatura Precipitaciones Viento Presión Humedad
    00:00 +7°C° 0 mm 1 mps 762 mmHg 88%
    01:00 +7°C° 0 mm 1 mps 762 mmHg 88%
    02:00 +6°C° 0 mm 2 mps 761 mmHg 88%
    03:00 +6°C° 0 mm 2 mps 761 mmHg 89%
    04:00 +6°C° 0 mm 2 mps 761 mmHg 89%
    05:00 +6°C° 0 mm 2 mps 761 mmHg 89%
    06:00 +7°C° 0 mm 3 mps 761 mmHg 87%
    07:00 +8°C° 0 mm 3 mps 761 mmHg 85%
    08:00 +9°C° 0 mm 3 mps 761 mmHg 83%
    09:00 +10°C° 0 mm 3 mps 761 mmHg 81%
    10:00 +11°C° 0 mm 3 mps 761 mmHg 80%
    11:00 +12°C° 0 mm 3 mps 761 mmHg 78%
    12:00 +13°C° 0 mm 4 mps 761 mmHg 78%
    13:00 +13°C° 0 mm 4 mps 761 mmHg 77%
    14:00 +14°C° 0 mm 4 mps 760 mmHg 77%
    15:00 +13°C° 0 mm 3 mps 760 mmHg 81%
    16:00 +12°C° 0 mm 3 mps 760 mmHg 84%
    17:00 +12°C° 0 mm 3 mps 760 mmHg 88%
    18:00 +12°C° 0 mm 2 mps 760 mmHg 90%
    19:00 +10°C° 0 mm 2 mps 760 mmHg 92%
    20:00 +10°C° 0 mm 2 mps 761 mmHg 94%
    21:00 +10°C° 0 mm 2 mps 760 mmHg 94%
    22:00 +9°C° 0 mm 2 mps 760 mmHg 94%
    23:00 +9°C° 0 mm 2 mps 760 mmHg 94%

    28 Febrero, Viernes

    Tiempo Temperatura Precipitaciones Viento Presión Humedad
    00:00 +9°C° 0 mm 2 mps 759 mmHg 94%
    01:00 +9°C° 0 mm 2 mps 759 mmHg 94%
    02:00 +9°C° 0 mm 2 mps 759 mmHg 94%
    03:00 +9°C° 0 mm 2 mps 758 mmHg 94%
    04:00 +9°C° 0 mm 2 mps 758 mmHg 94%
    05:00 +8°C° 0 mm 2 mps 758 mmHg 93%
    06:00 +9°C° 0 mm 3 mps 758 mmHg 91%
    07:00 +10°C° 0 mm 3 mps 758 mmHg 89%
    08:00 +11°C° 0 mm 3 mps 758 mmHg 87%
    09:00 +11°C° 0.1 mm 4 mps 758 mmHg 85%
    10:00 +12°C° 0.1 mm 4 mps 757 mmHg 83%
    11:00 +13°C° 0.1 mm 5 mps 757 mmHg 82%
    12:00 +13°C° 0.1 mm 5 mps 757 mmHg 81%
    13:00 +13°C° 0.1 mm 5 mps 757 mmHg 80%
    14:00 +14°C° 0.1 mm 5 mps 756 mmHg 79%
    15:00 +13°C° 0.2 mm 5 mps 756 mmHg 84%
    16:00 +12°C° 0.2 mm 5 mps 756 mmHg 88%
    17:00 +12°C° 0.2 mm 5 mps 756 mmHg 93%
    18:00 +12°C° 0.6 mm 5 mps 756 mmHg 94%
    19:00 +12°C° 0.6 mm 5 mps 757 mmHg 96%
    20:00 +12°C° 0.6 mm 5 mps 757 mmHg 97%
    21:00 +12°C° 0.5 mm 4 mps 757 mmHg 97%
    22:00 +12°C° 0.5 mm 4 mps 757 mmHg 97%
    23:00 +12°C° 0.5 mm 4 mps 757 mmHg 98%

    29 Febrero, Sábado

    Tiempo Temperatura Precipitaciones Viento Presión Humedad
    00:00 +12°C° 0.5 mm 4 mps 757 mmHg 98%
    01:00 +12°C° 0.5 mm 4 mps 757 mmHg 98%
    02:00 +12°C° 0.5 mm 4 mps 756 mmHg 98%
    03:00 +12°C° 0.3 mm 4 mps 756 mmHg 98%
    04:00 +12°C° 0.3 mm 3 mps 756 mmHg 98%
    05:00 +12°C° 0.3 mm 3 mps 756 mmHg 98%
    06:00 +12°C° 0.4 mm 4 mps 756 mmHg 97%
    07:00 +13°C° 0.4 mm 4 mps 756 mmHg 97%
    08:00 +13°C° 0.4 mm 5 mps 756 mmHg 96%
    09:00 +13°C° 0.5 mm 6 mps 756 mmHg 95%
    10:00 +14°C° 0.5 mm 6 mps 755 mmHg 94%
    11:00 +14°C° 0.5 mm 7 mps 755 mmHg 93%
    12:00 +13°C° 1.4 mm 8 mps 754 mmHg 93%
    13:00 +13°C° 1.4 mm 8 mps 754 mmHg 94%
    14:00 +13°C° 1.4 mm 9 mps 753 mmHg 94%
    15:00 +13°C° 2.2 mm 8 mps 753 mmHg 95%
    16:00 +13°C° 2.2 mm 8 mps 752 mmHg 95%
    17:00 +12°C° 2.2 mm 7 mps 752 mmHg 96%
    18:00 +12°C° 1.5 mm 8 mps 752 mmHg 96%
    19:00 +12°C° 1.5 mm 8 mps 752 mmHg 96%
    20:00 +12°C° 1.5 mm 8 mps 753 mmHg 96%
    21:00 +12°C° 1.1 mm 8 mps 753 mmHg 96%
    22:00 +12°C° 1.1 mm 8 mps 753 mmHg 96%
    23:00 +12°C° 1.1 mm 8 mps 753 mmHg 96%
    Mostrar más